[[{"header":{"parameterUnit":"m.s-1","parameterCategory":2,"la1":30.2991,"la2":30.254,"lo1":-89.0895,"lo2":-89.0444,"dy":0.0017,"dx":0.0017,"nx":28,"ny":28,"refTime":"2025-04-30T09:00:00:Z","depth":"0","parameterNumber":2,"parameterNumberName":"U-component_of_CURRENTS"},"data":[0,0,0,0,0,0,0,0,0,0,0,0,0,0,0,0,0,0,0,0,0,0,0,0,0,0,0,0,0,0,0,0,0,0,0,0,0,0,0,0,0,0,0,0,0,0,0,0,0,0,0,0,0,0,0,0,0,0,0.2992,0.2993,0,0.3056,0.3056,0.3057,0.3025,0.3024,0.3023,0.3022,0.3034,0.3035,0.3037,0,0,0,0,0,0,0,0,0,0,0,0,0,0.2872,0.2873,0.2991,0.2993,0.2994,0.3056,0.3056,0.3057,0.3025,0.3024,0.3022,0.3021,0.3033,0.3035,0.3037,0,0,0,0,0,0,0,0,0,0,0,0,0,0.2924,0.2874,0.2991,0.299,0.299,0.3056,0.3056,0.3057,0.3026,0.3024,0.3022,0.302,0.3033,0.3035,0.3037,0.3086,0,0,0.3044,0.3045,0,0,0,0,0,0,0,0,0.2921,0.2927,0.2989,0.299,0.2991,0.3035,0.3019,0.3066,0.3026,0.3007,0.3022,0.302,0.3034,0.3036,0.3046,0.3087,0.3087,0.3044,0.3045,0.3046,0.3047,0,0,0,0,0,0,0,0.2917,0.2925,0.3012,0.299,0.2992,0.2997,0.3001,0.3028,0.3025,0.3008,0.3008,0.3024,0.3033,0.3044,0.3046,0.3088,0.3044,0.3046,0.3047,0.3048,0.3183,0.3185,0,0,0,0,0,0,0.2921,0.2922,0.301,0.3014,0.2957,0.3001,0.3005,0.3019,0.3026,0.3027,0.3025,0.3022,0.3041,0.3043,0.3046,0.3113,0.3046,0.3048,0.3049,0.3181,0.3184,0.3186,0,0,0,0,0,0,0.2918,0.2928,0.3007,0.2973,0.2984,0.3005,0.302,0.3021,0.3032,0.304,0.3038,0.3035,0.304,0.3043,0.3088,0.3112,0.3049,0.3051,0.3178,0.3182,0.3185,0.3242,0,0,0,0,0,0,0.2914,0.2926,0.294,0.2974,0.2987,0.3064,0.3022,0.3024,0.3047,0.3043,0.3049,0.3048,0.3038,0.3085,0.309,0.3114,0.3053,0.3175,0.318,0.3184,0.3237,0.3247,0.3255,0,0,0,0,0,0.2909,0.2935,0.2941,0.2952,0.3004,0.3066,0.3074,0.3078,0.3049,0.3075,0.3077,0.3047,0.3115,0.309,0.3095,0.312,0.3173,0.3178,0.3183,0.3233,0.3245,0.3255,0,0,0,0,0,0,0.2885,0.2937,0.2942,0.298,0.303,0.3063,0.309,0.3088,0.3109,0.3099,0.3085,0.3088,0.3136,0.3131,0.3102,0.3174,0.3137,0.3143,0.3173,0.3184,0.3193,0.3162,0.3055,0,0,0,0,0,0.2891,0.2925,0.2977,0.301,0.3038,0.3065,0.3088,0.3096,0.312,0.3126,0.313,0.3139,0.3165,0.3174,0.3199,0.3244,0.3237,0.3263,0.3272,0.3279,0.3261,0.3277,0.3285,0.3203,0.3203,0.3203,0,0,0.2888,0.2925,0.2941,0.3009,0.3042,0.309,0.3073,0.3121,0.3148,0.3127,0.3163,0.3178,0.3187,0.3236,0.3255,0.323,0.3311,0.3286,0.3292,0.3269,0.3283,0.329,0.3297,0.3207,0.3206,0.3205,0,0,0.2907,0.2939,0.2976,0.3023,0.3089,0.3116,0.3133,0.3179,0.3188,0.3241,0.3226,0.3251,0.3298,0.3299,0.3306,0.3382,0.3364,0.3401,0.3414,0.3431,0.3437,0.3442,0.3486,0.3494,0.3398,0.3398,0.3398,0,0.2901,0.2954,0.2999,0.305,0.3086,0.3127,0.3171,0.3203,0.3253,0.326,0.326,0.3309,0.3319,0.3351,0.3379,0.3397,0.3417,0.3369,0.344,0.3444,0.3448,0.3492,0.35,0.3401,0.3401,0.3401,0.34,0,0.295,0.2994,0.3025,0.3099,0.3146,0.3198,0.3252,0.3288,0.3304,0.3319,0.3362,0.3385,0.3399,0.3422,0.3425,0.3462,0.3475,0.3453,0.3403,0.3459,0.3503,0.3511,0.3406,0.3405,0.3404,0.3403,0,0,0.2916,0.3035,0.3039,0.307,0.3172,0.3202,0.3271,0.3327,0.3332,0.339,0.3402,0.3455,0.3449,0.3457,0.3466,0.3482,0.3548,0.3484,0.3483,0.3513,0.3617,0.3646,0.3657,0.3543,0.3544,0.3544,0.3652,0,0.2937,0.3018,0.308,0.3142,0.3187,0.3249,0.3291,0.3339,0.338,0.3408,0.3435,0.3459,0.347,0.3476,0.35,0.3538,0.3563,0.3522,0.357,0.3572,0.3577,0.3665,0.36,0.3691,0.3659,0.366,0.3661,0,0.2953,0.3006,0.3069,0.3141,0.3162,0.3198,0.3249,0.3296,0.3357,0.3389,0.3428,0.3454,0.3509,0.3495,0.358,0.356,0.3589,0.3611,0.3615,0.3615,0.3613,0.3624,0.3705,0.3622,0.3672,0.3671,0.367,0,0.2879,0.2985,0.3023,0.3055,0.3151,0.3168,0.321,0.3271,0.331,0.3372,0.3418,0.3466,0.352,0.3553,0.3642,0.361,0.3737,0.3691,0.3742,0.3746,0.3682,0.3679,0.3665,0.3724,0.3724,0.3723,0.3723,0,0.2868,0.289,0.2982,0.2997,0.3012,0.3097,0.3112,0.3166,0.3254,0.3307,0.339,0.3465,0.3538,0.3635,0.3664,0.3765,0.3763,0.3761,0.3775,0.3709,0.3706,0.3621,0.3579,0.3727,0.3727,0.3726,0.3725,0,0.2781,0.2851,0.2883,0.2963,0.2979,0.2977,0.3068,0.3089,0.3193,0.328,0.3315,0.3492,0.3632,0.3718,0.3807,0.382,0.3791,0.3902,0.3844,0.3849,0.3782,0.3746,0.3591,0.3476,0.3956,0.3957,0.3958,0,0.2754,0.2767,0.282,0.2828,0.2862,0.2889,0.2911,0.3026,0.3086,0.3304,0.3355,0.3544,0.3685,0.3874,0.3924,0.4004,0.3856,0.3961,0.3863,0.3787,0.3758,0.3571,0.3469,0.3823,0.3823,0.3822,0.3822,0,0.2707,0.2713,0.2743,0.2758,0.2774,0.2796,0.2861,0.2907,0.3068,0.319,0.3394,0.3534,0.3764,0.3855,0.3984,0.4012,0.379,0.3962,0.3881,0.3656,0.3451,0.3345,0.3766,0.3822,0.3822,0.3822,0.3822,0.3822,0.2674,0.267,0.2714,0.2716,0.2722,0.2741,0.2742,0.2853,0.2971,0.3155,0.3349,0.3528,0.3738,0.3933,0.3928,0.3896,0.3802,0.38,0.3772,0.3594,0.3439,0.3883,0.3953,0.3954,0.3954,0.3955,0.3955,0,0.2686,0.2691,0.2685,0.2693,0.2667,0.2693,0.274,0.2749,0.286,0.3055,0.3238,0.3489,0.3635,0.3742,0.3836,0.3729,0.3507,0.3632,0.3338,0.3251,0.3668,0.3619,0.3622,0.3623,0.3623,0.3623,0.3623,0.3623,0.271,0.2719,0.2708,0.267,0.2647,0.261,0.2617,0.2639,0.2738,0.2896,0.303,0.3196,0.3502,0.3747,0.3701,0.36,0.3274,0.3174,0.3086,0.3405,0.3416,0.3426,0.3369,0.3319,0.3319,0.2537,0.2531,0.2527]},{"header":{"parameterUnit":"m.s-1","parameterCategory":2,"la1":30.2991,"la2":30.254,"lo1":-89.0895,"lo2":-89.0444,"dy":0.0017,"dx":0.0017,"nx":28,"ny":28,"refTime":"2025-04-30T09:00:00:Z","depth":"0","parameterNumber":3,"parameterNumberName":"V-component_of_CURRENTS"},"data":[0,0,0,0,0,0,0,0,0,0,0,0,0,0,0,0,0,0,0,0,0,0,0,0,0,0,0,0,0,0,0,0,0,0,0,0,0,0,0,0,0,0,0,0,0,0,0,0,0,0,0,0,0,0,0,0,0,0,0.0159,0.0158,0,0.0087,0.0086,0.0085,0.0026,0.0025,0.0025,0.0025,-0.0094,-0.0097,-0.0099,0,0,0,0,0,0,0,0,0,0,0,0,0,0.0205,0.0204,0.0159,0.0158,0.0157,0.0087,0.0086,0.0085,0.0026,0.0025,0.0025,0.0024,-0.0093,-0.0096,-0.0099,0,0,0,0,0,0,0,0,0,0,0,0,0,0.0163,0.0204,0.0159,0.012,0.0116,0.0088,0.0086,0.0085,0.0026,0.0025,0.0025,0.0024,-0.0092,-0.0096,-0.01,-0.011,0,0,-0.0112,-0.0114,0,0,0,0,0,0,0,0,0.0165,0.0161,0.0127,0.0123,0.0118,0.0066,0.0059,0.0018,0.0026,0.0059,0.0025,0.0024,-0.0043,-0.0051,-0.0065,-0.0116,-0.0121,-0.0113,-0.0115,-0.0117,-0.0118,0,0,0,0,0,0,0,0.0168,0.0164,0.0129,0.0126,0.0121,0.0094,0.0087,0.0051,0.0011,0.0056,0.0052,0.0047,-0.0046,-0.0061,-0.0068,-0.0123,-0.0113,-0.0116,-0.0119,-0.012,-0.0203,-0.0202,0,0,0,0,0,0,0.0183,0.0167,0.0131,0.0127,0.0142,0.0094,0.0086,0.0082,0.0012,0.0001,0.0047,0.0044,-0.0053,-0.0063,-0.0072,-0.0084,-0.0117,-0.0121,-0.0123,-0.0203,-0.0202,-0.0202,0,0,0,0,0,0,0.0185,0.0181,0.0134,0.0146,0.0138,0.0094,0.009,0.0081,0.0068,0.0006,-0.0006,0.0044,-0.0054,-0.0067,-0.0099,-0.0089,-0.0122,-0.0126,-0.0203,-0.0203,-0.0202,-0.011,0,0,0,0,0,0,0.0186,0.0182,0.0186,0.0147,0.0138,0.0128,0.0091,0.0081,0.0067,0.0062,-0.0001,-0.0013,-0.0056,-0.0092,-0.0103,-0.0095,-0.0129,-0.0203,-0.0203,-0.0202,-0.0113,-0.0106,-0.01,0,0,0,0,0,0.0188,0.0203,0.0186,0.0182,0.0145,0.0129,0.0122,0.0086,0.0068,0.007,0.0025,-0.0011,-0.0097,-0.0095,-0.0108,-0.0101,-0.0204,-0.0203,-0.0202,-0.0116,-0.0108,-0.0101,0,0,0,0,0,0,0.0225,0.0197,0.0178,0.0183,0.0161,0.0119,0.012,0.0095,0.0062,0.0057,-0.0005,-0.002,-0.0046,-0.0086,-0.0082,-0.0125,-0.0157,-0.0159,-0.0087,-0.008,-0.0074,-0.0053,-0.0133,0,0,0,0,0,0.0236,0.0238,0.0205,0.0209,0.0203,0.0162,0.0152,0.013,0.0095,0.008,0.0036,-0.0013,-0.0053,-0.0075,-0.0116,-0.0135,-0.0174,-0.0141,-0.0135,-0.0129,-0.0121,-0.0176,-0.0173,-0.02,-0.02,-0.02,0,0,0.025,0.0236,0.0236,0.0217,0.0196,0.0202,0.0154,0.0148,0.0149,0.0073,0.0061,0.0009,-0.0054,-0.0077,-0.0093,-0.0109,-0.0138,-0.0128,-0.0123,-0.0118,-0.0175,-0.0172,-0.017,-0.02,-0.02,-0.02,0,0,0.0289,0.0269,0.0288,0.0278,0.0259,0.0235,0.0239,0.0204,0.0185,0.0166,0.0109,0.0067,0.001,-0.0034,-0.0064,-0.0047,-0.0103,-0.0063,-0.0013,-0.0066,-0.0064,-0.0063,-0.009,-0.0092,-0.006,-0.0059,-0.0059,0,0.0307,0.0327,0.0291,0.031,0.0312,0.0258,0.0283,0.0257,0.0215,0.0204,0.0176,0.0086,0.0032,-0.0004,-0.0002,-0.0032,-0.0064,-0.0034,-0.0056,-0.0056,-0.0056,-0.0085,-0.0089,-0.0055,-0.0055,-0.0056,-0.0056,0,0.0363,0.0379,0.0392,0.0396,0.0391,0.0405,0.037,0.0359,0.0327,0.0294,0.0253,0.0174,0.0121,0.0093,0.0049,0.0021,-0.0001,-0.004,-0.007,-0.0048,-0.008,-0.0085,-0.0048,-0.005,-0.0051,-0.0052,0,0,0.0403,0.0428,0.0432,0.0457,0.0443,0.0449,0.045,0.0435,0.0439,0.0378,0.0373,0.0287,0.0236,0.0198,0.0131,0.008,0.0051,0.0027,0.0022,0.001,-0.0048,-0.0049,-0.0056,0.0005,0.0004,0.0004,-0.0062,0,0.0459,0.0524,0.0514,0.057,0.0601,0.0561,0.0568,0.0543,0.0506,0.0486,0.0393,0.0359,0.0278,0.0254,0.019,0.0087,0.0038,0.0073,-0.0078,-0.0081,-0.0078,-0.0062,-0.0038,-0.0094,-0.0068,-0.0069,-0.0069,0,0.0519,0.0557,0.0627,0.0667,0.0676,0.0692,0.0696,0.0694,0.064,0.0611,0.055,0.048,0.0401,0.0326,0.0166,0.0193,0.0084,-0.0002,-0.0008,-0.0046,-0.0093,-0.0118,-0.0105,-0.0304,-0.0078,-0.0077,-0.0077,0,0.0574,0.0636,0.0699,0.0712,0.0741,0.0758,0.076,0.0728,0.0749,0.0687,0.0695,0.0575,0.0539,0.0377,0.0207,0.0184,0.0034,-0.0024,-0.0127,-0.0128,-0.0155,-0.0157,-0.0344,-0.014,-0.0139,-0.0139,-0.0139,0,0.064,0.069,0.0731,0.0765,0.0836,0.0822,0.0878,0.0853,0.085,0.0903,0.0763,0.0786,0.0549,0.0441,0.0252,0.0065,0.0068,-0.0109,-0.0147,-0.012,-0.0118,-0.0331,-0.0443,-0.0142,-0.0141,-0.0141,-0.014,0,0.069,0.0716,0.0795,0.0846,0.0865,0.091,0.0973,0.1016,0.0988,0.1054,0.105,0.0952,0.0814,0.0576,0.0335,0.0154,-0.0157,-0.0119,-0.0055,-0.0084,-0.0373,-0.0479,-0.0702,-0.0782,-0.0246,-0.0247,-0.0247,0,0.0725,0.0772,0.0856,0.0913,0.094,0.1011,0.1064,0.1075,0.1147,0.1182,0.1236,0.1126,0.1098,0.0731,0.0375,0.0048,-0.0156,-0.0148,-0.0202,-0.0378,-0.0525,-0.0608,-0.0665,-0.0199,-0.0199,-0.0199,-0.0199,0,0.0804,0.0826,0.0897,0.1016,0.1091,0.1191,0.1282,0.1373,0.1419,0.1491,0.159,0.157,0.121,0.0896,0.0419,0.0178,-0.028,-0.0157,-0.0371,-0.0524,-0.0597,-0.0693,-0.0153,-0.0198,-0.0198,-0.0198,-0.0199,-0.0199,0.0869,0.0936,0.1037,0.1152,0.1246,0.1397,0.1506,0.1637,0.1801,0.1957,0.1904,0.1905,0.1379,0.0734,0.0375,-0.0276,-0.0294,-0.0468,-0.0584,-0.0654,-0.0731,-0.0171,-0.0242,-0.0243,-0.0243,-0.0243,-0.0243,0,0.0975,0.1061,0.1174,0.1332,0.146,0.1483,0.1678,0.1812,0.205,0.2168,0.2269,0.1997,0.139,0.0724,-0.0157,-0.061,-0.0785,-0.0869,-0.1001,-0.1041,-0.0571,-0.0568,-0.0674,-0.0674,-0.0674,-0.0674,-0.0674,-0.0673,0.1048,0.1188,0.1253,0.151,0.1611,0.18,0.1925,0.2122,0.2252,0.2427,0.241,0.2353,0.1802,0.0256,-0.0785,-0.1027,-0.1352,-0.1436,-0.1595,-0.13,-0.1272,-0.1245,-0.127,-0.1522,-0.1523,-0.1997,-0.2003,-0.2006]}],[{"header":{"parameterUnit":"m.s-1","parameterCategory":2,"la1":30.2991,"la2":30.254,"lo1":-89.0895,"lo2":-89.0444,"dy":0.0017,"dx":0.0017,"nx":28,"ny":28,"refTime":"2025-04-30T09:00:00:Z","depth":"2","parameterNumber":2,"parameterNumberName":"U-component_of_CURRENTS"},"data":[0,0,0,0,0,0,0,0,0,0,0,0,0,0,0,0,0,0,0,0,0,0,0,0,0,0,0,0,0,0,0,0,0,0,0,0,0,0,0,0,0,0,0,0,0,0,0,0,0,0,0,0,0,0,0,0,0,0,0.2593,0.2594,0,0.2668,0.2669,0.2669,0.267,0.267,0.2669,0.2669,0.2707,0.2708,0.2709,0,0,0,0,0,0,0,0,0,0,0,0,0,0.248,0.2481,0.2593,0.2595,0.2596,0.2668,0.2669,0.2669,0.267,0.267,0.2669,0.2669,0.2706,0.2708,0.271,0,0,0,0,0,0,0,0,0,0,0,0,0,0.2534,0.2482,0.2593,0.261,0.2613,0.2668,0.2669,0.2669,0.267,0.267,0.2669,0.2669,0.2706,0.2708,0.271,0.2734,0,0,0.2716,0.2717,0,0,0,0,0,0,0,0,0.253,0.2537,0.2606,0.2609,0.2612,0.2665,0.2643,0.2691,0.2671,0.2642,0.2669,0.2668,0.2694,0.2697,0.2704,0.2736,0.2737,0.2716,0.2717,0.2718,0.2719,0,0,0,0,0,0,0,0.2527,0.2534,0.2617,0.2608,0.2612,0.2625,0.263,0.2652,0.2665,0.2644,0.2646,0.2665,0.2694,0.2702,0.2705,0.2738,0.2716,0.2718,0.2719,0.272,0.2839,0.2841,0,0,0,0,0,0,0.2529,0.253,0.2614,0.2619,0.2576,0.2627,0.2634,0.2643,0.2665,0.267,0.2665,0.2665,0.2699,0.2702,0.2706,0.2779,0.2718,0.272,0.2721,0.2837,0.284,0.2842,0,0,0,0,0,0,0.2526,0.2536,0.2611,0.2582,0.2593,0.263,0.2641,0.2645,0.2666,0.2683,0.2685,0.2684,0.2698,0.2703,0.2744,0.2778,0.2721,0.2723,0.2835,0.2838,0.2841,0.2897,0,0,0,0,0,0,0.2522,0.2534,0.2544,0.2582,0.2595,0.2655,0.2642,0.2647,0.2681,0.2681,0.27,0.2701,0.2698,0.2741,0.2746,0.278,0.2725,0.2833,0.2836,0.284,0.2892,0.2901,0.2909,0,0,0,0,0,0.2518,0.2533,0.2543,0.2554,0.2606,0.2657,0.2665,0.2685,0.2683,0.2699,0.2715,0.2702,0.2767,0.2744,0.275,0.2785,0.2831,0.2835,0.2839,0.2889,0.2899,0.2908,0,0,0,0,0,0,0.249,0.2537,0.2548,0.2577,0.2621,0.266,0.2683,0.2696,0.2722,0.2725,0.2726,0.2731,0.2782,0.2779,0.2753,0.2832,0.2798,0.2803,0.2833,0.2843,0.2851,0.2834,0.2726,0,0,0,0,0,0.249,0.2517,0.2563,0.2593,0.2613,0.2651,0.2675,0.2694,0.2725,0.2735,0.2752,0.2774,0.2804,0.2818,0.2842,0.2884,0.2883,0.2911,0.292,0.2926,0.2918,0.2947,0.2957,0.2856,0.2856,0.2856,0,0,0.2494,0.2523,0.2541,0.259,0.2623,0.2662,0.2662,0.2712,0.2743,0.2737,0.2784,0.2807,0.2823,0.2872,0.2894,0.2872,0.2962,0.2932,0.2937,0.2925,0.2953,0.2962,0.2971,0.2859,0.2859,0.2858,0,0,0.2516,0.2536,0.2566,0.2602,0.2662,0.2685,0.2703,0.2754,0.2772,0.2825,0.2832,0.2871,0.2916,0.2933,0.2946,0.3014,0.3008,0.3033,0.3056,0.3086,0.3094,0.31,0.3137,0.3147,0.3032,0.3032,0.3032,0,0.2515,0.2554,0.2585,0.2624,0.2655,0.2696,0.2732,0.2766,0.2825,0.2847,0.2847,0.2927,0.2941,0.2994,0.3019,0.303,0.305,0.3016,0.3095,0.3101,0.3107,0.3143,0.3153,0.3035,0.3035,0.3035,0.3034,0,0.2556,0.2592,0.2616,0.2671,0.2708,0.2751,0.28,0.2843,0.2872,0.2902,0.2968,0.2994,0.3034,0.3057,0.3058,0.3118,0.3121,0.3104,0.3064,0.312,0.3155,0.3164,0.304,0.3039,0.3038,0.3037,0,0,0.2535,0.2623,0.2631,0.2658,0.2732,0.2762,0.2827,0.2885,0.2919,0.298,0.3024,0.3084,0.3099,0.3114,0.3131,0.3155,0.3225,0.3151,0.3152,0.3178,0.3307,0.3304,0.3313,0.3227,0.3228,0.3229,0.3323,0,0.2553,0.2616,0.2659,0.2721,0.2752,0.2809,0.2854,0.2917,0.2967,0.3023,0.3067,0.3116,0.3121,0.3146,0.3178,0.3218,0.3248,0.3202,0.3256,0.3257,0.3239,0.3323,0.3088,0.3151,0.3331,0.3333,0.3334,0,0.2564,0.2607,0.2656,0.2729,0.2746,0.2785,0.2856,0.2906,0.2997,0.304,0.3106,0.3145,0.3217,0.3196,0.329,0.3266,0.3289,0.3308,0.3312,0.3288,0.3271,0.312,0.316,0.3349,0.3347,0.3346,0.3345,0,0.2507,0.2598,0.2627,0.2654,0.2742,0.2773,0.2821,0.2907,0.2959,0.3052,0.3112,0.3185,0.3247,0.3285,0.3357,0.3327,0.3452,0.3409,0.3426,0.3426,0.3224,0.3204,0.3455,0.3455,0.3454,0.3454,0.3454,0,0.2489,0.2514,0.2601,0.2616,0.2649,0.2729,0.2773,0.2841,0.295,0.3014,0.3111,0.3191,0.3274,0.3366,0.3387,0.3464,0.3484,0.3447,0.3455,0.3242,0.3224,0.3379,0.3369,0.3458,0.3457,0.3456,0.3456,0,0.2415,0.2472,0.2505,0.2593,0.2618,0.2637,0.2749,0.2792,0.291,0.3006,0.3047,0.3227,0.3351,0.3437,0.3523,0.3519,0.3568,0.3579,0.3339,0.3317,0.3508,0.35,0.3595,0.3596,0.3596,0.3597,0.3597,0,0.2379,0.2387,0.2462,0.2478,0.2515,0.2569,0.2607,0.2741,0.2808,0.3023,0.3072,0.3257,0.3371,0.354,0.3562,0.3618,0.3631,0.3411,0.3297,0.3527,0.3525,0.3516,0.3507,0.3056,0.3052,0.3049,0.3046,0,0.2315,0.2335,0.2373,0.2406,0.2441,0.2484,0.2568,0.2619,0.278,0.2893,0.307,0.319,0.3385,0.3372,0.3473,0.3457,0.3382,0.3348,0.3651,0.307,0.303,0.3025,0.3031,0.3017,0.302,0.3022,0.3024,0.3025,0.2276,0.2273,0.2327,0.235,0.2385,0.2421,0.2425,0.2537,0.2643,0.2781,0.2956,0.3056,0.3154,0.3211,0.3149,0.3104,0.3318,0.3155,0.3159,0.3169,0.3103,0.3067,0.305,0.3052,0.3055,0.3057,0.3059,0,0.2259,0.2271,0.2278,0.231,0.2309,0.2362,0.2415,0.2405,0.2483,0.2629,0.2756,0.2641,0.27,0.2775,0.2688,0.2723,0.2631,0.2595,0.244,0.2477,0.2507,0.2399,0.2163,0.2159,0.2156,0.2152,0,0,0.2259,0.226,0.2254,0.2245,0.2258,0.2234,0.2241,0.2235,0.2301,0.2311,0.235,0.2589,0.2739,0.2406,0.2398,0.2258,0.2327,0.2176,0.2916,0.2774,0.2798,0.288,0.2764,0,0,0,0,0]},{"header":{"parameterUnit":"m.s-1","parameterCategory":2,"la1":30.2991,"la2":30.254,"lo1":-89.0895,"lo2":-89.0444,"dy":0.0017,"dx":0.0017,"nx":28,"ny":28,"refTime":"2025-04-30T09:00:00:Z","depth":"2","parameterNumber":3,"parameterNumberName":"V-component_of_CURRENTS"},"data":[0,0,0,0,0,0,0,0,0,0,0,0,0,0,0,0,0,0,0,0,0,0,0,0,0,0,0,0,0,0,0,0,0,0,0,0,0,0,0,0,0,0,0,0,0,0,0,0,0,0,0,0,0,0,0,0,0,0,0.002,0.002,0,-0.0043,-0.0044,-0.0044,-0.0095,-0.0095,-0.0095,-0.0096,-0.0199,-0.0201,-0.0204,0,0,0,0,0,0,0,0,0,0,0,0,0,0.0054,0.0054,0.002,0.002,0.0019,-0.0043,-0.0044,-0.0045,-0.0095,-0.0095,-0.0096,-0.0096,-0.0198,-0.0201,-0.0204,0,0,0,0,0,0,0,0,0,0,0,0,0,0.0018,0.0053,0.002,-0.0012,-0.0016,-0.0042,-0.0044,-0.0045,-0.0095,-0.0095,-0.0096,-0.0096,-0.0197,-0.0201,-0.0204,-0.0216,0,0,-0.0215,-0.0217,0,0,0,0,0,0,0,0,0.002,0.0017,-0.0007,-0.001,-0.0014,-0.006,-0.0069,-0.0104,-0.0094,-0.0067,-0.0096,-0.0096,-0.0154,-0.0162,-0.0174,-0.0221,-0.0226,-0.0216,-0.0218,-0.0219,-0.022,0,0,0,0,0,0,0,0.0023,0.0019,-0.0007,-0.0007,-0.0012,-0.0038,-0.0044,-0.0076,-0.0109,-0.0069,-0.0072,-0.0076,-0.0157,-0.0171,-0.0177,-0.0227,-0.0216,-0.0219,-0.0221,-0.0222,-0.0293,-0.0293,0,0,0,0,0,0,0.0037,0.0022,-0.0005,-0.0008,0.0004,-0.0038,-0.0044,-0.0046,-0.0108,-0.0117,-0.0076,-0.0078,-0.0164,-0.0173,-0.0181,-0.0187,-0.0219,-0.0223,-0.0225,-0.0294,-0.0293,-0.0293,0,0,0,0,0,0,0.0038,0.0036,-0.0002,0.0006,0.0,-0.0037,-0.004,-0.0047,-0.0058,-0.0112,-0.0123,-0.0079,-0.0165,-0.0176,-0.0203,-0.0192,-0.0224,-0.0228,-0.0294,-0.0293,-0.0293,-0.0207,0,0,0,0,0,0,0.004,0.0036,0.004,0.0008,0.0,-0.0006,-0.0039,-0.0048,-0.0059,-0.0063,-0.0118,-0.0129,-0.0166,-0.0197,-0.0206,-0.0198,-0.0231,-0.0294,-0.0294,-0.0293,-0.0211,-0.0204,-0.0199,0,0,0,0,0,0.0041,0.0055,0.0041,0.0037,0.0007,-0.0005,-0.0011,-0.0042,-0.0058,-0.0056,-0.0094,-0.0127,-0.0201,-0.0199,-0.0211,-0.0203,-0.0295,-0.0294,-0.0293,-0.0213,-0.0205,-0.0199,0,0,0,0,0,0,0.0072,0.005,0.0034,0.004,0.0022,-0.0013,-0.0013,-0.0034,-0.0063,-0.0067,-0.0122,-0.0134,-0.0155,-0.0191,-0.0188,-0.0223,-0.0253,-0.0255,-0.0189,-0.0182,-0.0176,-0.0157,-0.0234,0,0,0,0,0,0.0081,0.0085,0.0058,0.0063,0.0057,0.0023,0.0014,-0.0004,-0.0033,-0.0047,-0.0085,-0.0127,-0.0161,-0.0179,-0.0215,-0.0231,-0.027,-0.0235,-0.0229,-0.0223,-0.0216,-0.0268,-0.0266,-0.0291,-0.0291,-0.0291,0,0,0.0095,0.0083,0.0085,0.007,0.0052,0.0059,0.0016,0.0012,0.0016,-0.0053,-0.0061,-0.0106,-0.0161,-0.018,-0.0192,-0.0207,-0.0235,-0.0223,-0.0217,-0.0213,-0.0267,-0.0265,-0.0263,-0.029,-0.029,-0.029,0,0,0.0133,0.0114,0.0133,0.0125,0.0109,0.0088,0.0092,0.0063,0.0047,0.0033,-0.0017,-0.0052,-0.0101,-0.0138,-0.0164,-0.0147,-0.0201,-0.016,-0.0114,-0.0163,-0.0162,-0.0161,-0.0195,-0.0198,-0.0157,-0.0156,-0.0156,0,0.0149,0.0169,0.0137,0.0156,0.0158,0.0109,0.0134,0.0112,0.0077,0.0068,0.0044,-0.0033,-0.0081,-0.0109,-0.0105,-0.0132,-0.0166,-0.0134,-0.0154,-0.0154,-0.0155,-0.0191,-0.0195,-0.0152,-0.0153,-0.0153,-0.0154,0,0.0204,0.0219,0.0231,0.0238,0.0234,0.0248,0.0218,0.0209,0.018,0.0152,0.0119,0.005,0.0005,-0.0019,-0.0057,-0.0082,-0.0106,-0.0139,-0.0168,-0.0147,-0.0187,-0.0192,-0.0146,-0.0148,-0.0149,-0.015,0,0,0.0244,0.0267,0.0272,0.0294,0.0282,0.029,0.0293,0.0282,0.0287,0.0234,0.0232,0.0158,0.0112,0.008,0.002,-0.0027,-0.006,-0.0077,-0.0082,-0.0103,-0.0161,-0.0169,-0.0176,-0.0099,-0.01,-0.01,-0.0183,0,0.0297,0.0358,0.0349,0.0403,0.0432,0.0396,0.0404,0.0385,0.0352,0.0334,0.0252,0.0224,0.0152,0.0132,0.0073,-0.0025,-0.0073,-0.0034,-0.0186,-0.019,-0.0194,-0.0183,-0.0153,-0.0224,-0.0189,-0.019,-0.0191,0,0.0354,0.039,0.0455,0.0493,0.0502,0.0519,0.0525,0.0525,0.0478,0.0452,0.0399,0.0336,0.0264,0.0197,0.0043,0.0072,-0.0034,-0.0117,-0.0123,-0.0164,-0.021,-0.0244,-0.0236,-0.0201,-0.02,-0.02,-0.0199,0,0.0405,0.0464,0.0521,0.0534,0.0563,0.0581,0.0585,0.0559,0.0577,0.0524,0.053,0.0421,0.0383,0.0234,0.0071,0.0054,-0.01,-0.0147,-0.0255,-0.0257,-0.0278,-0.028,-0.026,-0.026,-0.026,-0.0259,-0.0259,0,0.0465,0.0511,0.0551,0.0584,0.065,0.064,0.0692,0.0674,0.0671,0.0704,0.0594,0.0601,0.039,0.0281,0.0107,-0.0078,-0.0074,-0.0241,-0.0279,-0.0246,-0.0244,-0.0266,-0.0266,-0.0263,-0.0262,-0.0261,-0.0261,0,0.0508,0.0533,0.0606,0.0656,0.0676,0.0718,0.0778,0.0815,0.0794,0.0834,0.0829,0.0741,0.0598,0.0386,0.0153,-0.001,-0.0201,-0.0272,-0.0208,-0.0237,-0.0336,-0.033,-0.0403,-0.0404,-0.0405,-0.0406,-0.0406,0,0.0533,0.0573,0.066,0.0709,0.0735,0.0801,0.0849,0.0867,0.0923,0.0929,0.0966,0.0854,0.0796,0.0459,0.0149,-0.015,-0.0193,-0.0317,-0.0352,-0.0321,-0.0351,-0.0344,-0.0337,-0.0347,-0.0347,-0.0347,-0.0347,0,0.0577,0.0604,0.0667,0.0773,0.0842,0.0938,0.1017,0.1088,0.1115,0.1153,0.1193,0.1149,0.0836,0.0545,0.0136,-0.0066,-0.0269,-0.0327,-0.0318,-0.0308,-0.0273,-0.0301,-0.0295,-0.0348,-0.0348,-0.0348,-0.0348,-0.0348,0.0601,0.0653,0.0737,0.0839,0.0937,0.1068,0.1152,0.1252,0.1357,0.1421,0.1368,0.1307,0.0963,0.0454,0.0095,-0.0274,-0.0268,-0.0399,-0.0397,-0.0396,-0.0367,-0.0335,-0.0415,-0.0415,-0.0416,-0.0416,-0.0416,0,0.0623,0.0695,0.0795,0.0929,0.1049,0.1101,0.1262,0.1349,0.1488,0.1543,0.1563,0.1244,0.0909,0.0525,-0.0028,-0.0364,-0.0389,-0.0456,-0.0421,-0.0418,-0.0416,-0.0388,-0.0443,-0.0443,-0.0444,-0.0445,0,0,0.0635,0.0726,0.0788,0.0992,0.1104,0.1273,0.1374,0.1504,0.1592,0.164,0.1615,0.1521,0.105,0.0647,0.0183,-0.0128,-0.0189,-0.0182,-0.0125,-0.0026,-0.002,-0.0349,-0.0298,0,0,0,0,0]}],[{"header":{"parameterUnit":"m.s-1","parameterCategory":2,"la1":30.2991,"la2":30.254,"lo1":-89.0895,"lo2":-89.0444,"dy":0.0017,"dx":0.0017,"nx":28,"ny":28,"refTime":"2025-04-30T09:00:00:Z","depth":"4","parameterNumber":2,"parameterNumberName":"U-component_of_CURRENTS"},"data":[0,0,0,0,0,0,0,0,0,0,0,0,0,0,0,0,0,0,0,0,0,0,0,0,0,0,0,0,0,0,0,0,0,0,0,0,0,0,0,0,0,0,0,0,0,0,0,0,0,0,0,0,0,0,0,0,0,0,0.1622,0.1623,0,0.1717,0.1718,0.1719,0.1804,0.1805,0.1806,0.1807,0.1915,0.1916,0.1918,0,0,0,0,0,0,0,0,0,0,0,0,0,0.1507,0.1508,0.1622,0.1623,0.1624,0.1717,0.1718,0.172,0.1804,0.1805,0.1806,0.1808,0.1914,0.1916,0.1918,0,0,0,0,0,0,0,0,0,0,0,0,0,0.1574,0.1509,0.1621,0.1678,0.1684,0.1717,0.1718,0.172,0.1804,0.1805,0.1807,0.1808,0.1913,0.1916,0.1919,0.1903,0,0,0.1927,0.1928,0,0,0,0,0,0,0,0,0.157,0.1578,0.1669,0.1674,0.1681,0.1751,0.1717,0.1782,0.1803,0.1757,0.1807,0.1809,0.1861,0.1868,0.188,0.1908,0.1913,0.1927,0.1929,0.193,0.1931,0,0,0,0,0,0,0,0.1565,0.1574,0.1658,0.167,0.1678,0.1697,0.1709,0.173,0.1798,0.1761,0.1768,0.178,0.1864,0.1877,0.1884,0.1914,0.1927,0.193,0.1931,0.1933,0.2073,0.2075,0,0,0,0,0,0,0.1554,0.157,0.1655,0.1661,0.163,0.1698,0.1711,0.1726,0.1798,0.181,0.1778,0.1783,0.1872,0.188,0.1888,0.1994,0.193,0.1933,0.1934,0.2071,0.2074,0.2076,0,0,0,0,0,0,0.1551,0.1561,0.1652,0.1618,0.1631,0.1699,0.1715,0.1727,0.1777,0.1811,0.1824,0.182,0.1874,0.1884,0.1946,0.1995,0.1934,0.1937,0.2069,0.2072,0.2075,0.213,0,0,0,0,0,0,0.1548,0.1559,0.158,0.1618,0.1633,0.1691,0.1714,0.1728,0.178,0.1789,0.185,0.186,0.1876,0.1942,0.1949,0.1997,0.1939,0.2066,0.207,0.2074,0.2126,0.2135,0.2142,0,0,0,0,0,0.1543,0.1556,0.158,0.1592,0.1655,0.1692,0.1702,0.1753,0.1781,0.1804,0.1856,0.186,0.1972,0.1946,0.1954,0.2004,0.2064,0.2069,0.2073,0.2122,0.2133,0.2142,0,0,0,0,0,0,0.1518,0.1567,0.1595,0.1624,0.1667,0.1707,0.1734,0.1768,0.1826,0.1845,0.1878,0.1892,0.1967,0.1974,0.1944,0.2057,0.2022,0.2028,0.2056,0.2067,0.2075,0.2078,0.1941,0,0,0,0,0,0.152,0.1548,0.1595,0.1624,0.1643,0.1695,0.1722,0.1759,0.1806,0.1835,0.1885,0.1937,0.1985,0.2017,0.2055,0.2107,0.2113,0.2148,0.2156,0.2163,0.2172,0.2219,0.2232,0.2091,0.2091,0.2091,0,0,0.152,0.1551,0.1569,0.1621,0.1657,0.1697,0.1716,0.1764,0.1815,0.1835,0.1927,0.1966,0.2005,0.2075,0.211,0.2092,0.2207,0.2169,0.2175,0.218,0.2225,0.2239,0.2251,0.2094,0.2094,0.2093,0,0,0.152,0.156,0.1582,0.1621,0.1681,0.1712,0.1733,0.1798,0.1848,0.1923,0.1961,0.203,0.21,0.2146,0.2173,0.2247,0.2249,0.2267,0.2316,0.2361,0.2373,0.2383,0.2407,0.2419,0.2273,0.2273,0.2273,0,0.1522,0.1558,0.1595,0.163,0.1672,0.1724,0.1765,0.1815,0.1901,0.1952,0.1963,0.2103,0.2134,0.2227,0.2262,0.2267,0.2286,0.2271,0.2371,0.2382,0.2391,0.2413,0.2426,0.2276,0.2276,0.2276,0.2275,0,0.1537,0.1581,0.1596,0.1664,0.1712,0.1753,0.1825,0.1891,0.1956,0.2013,0.2129,0.2179,0.2266,0.229,0.2301,0.2399,0.2388,0.2373,0.2341,0.2409,0.2428,0.244,0.2281,0.228,0.2279,0.2278,0,0,0.1504,0.159,0.1602,0.1647,0.1738,0.1777,0.1867,0.1962,0.2035,0.2124,0.2223,0.2316,0.2358,0.2392,0.2423,0.2466,0.2549,0.2458,0.2458,0.2473,0.2646,0.2498,0.2497,0.2556,0.2559,0.2561,0.2631,0,0.1511,0.1574,0.1626,0.1709,0.1749,0.1837,0.1918,0.2018,0.2104,0.221,0.2287,0.2386,0.2392,0.2447,0.2496,0.2543,0.2585,0.2531,0.2586,0.2587,0.2441,0.2507,0.2569,0.264,0.2642,0.2644,0.2646,0,0.1505,0.1556,0.1628,0.1744,0.1773,0.1839,0.1986,0.2066,0.2212,0.2285,0.2395,0.2456,0.2567,0.2543,0.2659,0.2629,0.265,0.2665,0.2668,0.2518,0.2461,0.256,0.2667,0.2665,0.2664,0.2662,0.2661,0,0.1453,0.1558,0.162,0.166,0.1795,0.1865,0.1949,0.2096,0.2186,0.2339,0.242,0.2542,0.2625,0.2675,0.2734,0.2709,0.2833,0.2792,0.2675,0.2664,0.275,0.2738,0.2861,0.2861,0.286,0.286,0.286,0,0.1423,0.148,0.1607,0.1642,0.1745,0.185,0.1973,0.2076,0.2231,0.233,0.2459,0.2545,0.2666,0.2752,0.277,0.2766,0.2867,0.2695,0.2678,0.2771,0.2762,0.2758,0.2745,0.2863,0.2862,0.2862,0.2861,0,0.1354,0.1432,0.1516,0.1664,0.1719,0.1798,0.1982,0.206,0.222,0.235,0.2407,0.2587,0.2685,0.278,0.2869,0.2803,0.2813,0.2785,0.2891,0.2878,0.2601,0.259,0.2642,0.2637,0.2633,0.263,0.2628,0,0.1321,0.1353,0.1515,0.1571,0.1644,0.1774,0.1856,0.2037,0.2116,0.2347,0.2391,0.2562,0.2656,0.267,0.2769,0.2796,0.2767,0.2747,0.2655,0.2602,0.2582,0.2578,0.2573,0.2621,0.262,0.2619,0.2618,0,0.1258,0.1326,0.1394,0.1503,0.1598,0.1701,0.1828,0.1879,0.2072,0.2237,0.2325,0.2392,0.2503,0.2569,0.2625,0.2633,0.2742,0.2706,0.2713,0.2626,0.2578,0.2561,0.2561,0.2605,0.2607,0.2608,0.2609,0,0.1209,0.1243,0.1329,0.1419,0.1527,0.1588,0.1677,0.1771,0.1878,0.2119,0.2138,0.2315,0.2469,0.2487,0.2533,0.2542,0.2491,0.2395,0.2416,0.2432,0.2333,0.224,0.2159,0,0,0,0,0,0.1154,0.1171,0.1238,0.1324,0.1422,0.149,0.1638,0.1727,0.1907,0.1914,0.2025,0.2112,0.2195,0.2293,0.2259,0.2441,0.25,0.2391,0.2399,0.2532,0.2547,0.2451,0,0,0,0,0,0,0.1111,0.1162,0.1193,0.1218,0.1257,0.1355,0.1443,0.1568,0.1588,0.1776,0.1837,0.1979,0.2097,0.2189,0.2215,0.2244,0.2205,0.2505,0.25,0.2523,0.2537,0.2549,0.2456,0,0,0,0,0]},{"header":{"parameterUnit":"m.s-1","parameterCategory":2,"la1":30.2991,"la2":30.254,"lo1":-89.0895,"lo2":-89.0444,"dy":0.0017,"dx":0.0017,"nx":28,"ny":28,"refTime":"2025-04-30T09:00:00:Z","depth":"4","parameterNumber":3,"parameterNumberName":"V-component_of_CURRENTS"},"data":[0,0,0,0,0,0,0,0,0,0,0,0,0,0,0,0,0,0,0,0,0,0,0,0,0,0,0,0,0,0,0,0,0,0,0,0,0,0,0,0,0,0,0,0,0,0,0,0,0,0,0,0,0,0,0,0,0,0,0.0026,0.0026,0,-0.0017,-0.0018,-0.0018,-0.006,-0.006,-0.006,-0.0061,-0.0141,-0.0142,-0.0144,0,0,0,0,0,0,0,0,0,0,0,0,0,0.004,0.004,0.0026,0.0026,0.0025,-0.0017,-0.0018,-0.0018,-0.0059,-0.006,-0.006,-0.0061,-0.014,-0.0142,-0.0144,0,0,0,0,0,0,0,0,0,0,0,0,0,0.0018,0.004,0.0026,0.0,-0.0002,-0.0017,-0.0018,-0.0018,-0.0059,-0.006,-0.0061,-0.0061,-0.0139,-0.0142,-0.0144,-0.0148,0,0,-0.0152,-0.0154,0,0,0,0,0,0,0,0,0.002,0.0018,0.0005,0.0002,-0.0001,-0.0032,-0.0042,-0.0063,-0.0059,-0.0039,-0.0061,-0.0062,-0.0107,-0.0112,-0.012,-0.0152,-0.0155,-0.0153,-0.0154,-0.0155,-0.0156,0,0,0,0,0,0,0,0.0021,0.0019,0.0008,0.0004,0.0001,-0.002,-0.0023,-0.0046,-0.007,-0.0041,-0.0044,-0.0046,-0.0109,-0.0117,-0.0122,-0.0156,-0.0153,-0.0155,-0.0157,-0.0158,-0.0207,-0.0207,0,0,0,0,0,0,0.0032,0.0021,0.0009,0.0007,0.001,-0.0019,-0.0023,-0.0023,-0.0069,-0.0077,-0.0046,-0.0048,-0.0112,-0.0119,-0.0125,-0.0129,-0.0155,-0.0158,-0.0159,-0.0208,-0.0207,-0.0207,0,0,0,0,0,0,0.0032,0.0031,0.0011,0.0013,0.0009,-0.0018,-0.0018,-0.0023,-0.0032,-0.0072,-0.0081,-0.0048,-0.0113,-0.0121,-0.014,-0.0133,-0.0159,-0.0161,-0.0208,-0.0208,-0.0207,-0.0139,0,0,0,0,0,0,0.0033,0.0032,0.0035,0.0014,0.001,0.0011,-0.0017,-0.0023,-0.0032,-0.0036,-0.0078,-0.0086,-0.0114,-0.0136,-0.0143,-0.0137,-0.0163,-0.0208,-0.0208,-0.0207,-0.0142,-0.0137,-0.0132,0,0,0,0,0,0.0034,0.0048,0.0036,0.0034,0.0016,0.0012,0.0008,-0.0016,-0.0031,-0.0028,-0.0058,-0.0084,-0.0138,-0.0138,-0.0146,-0.014,-0.0209,-0.0208,-0.0207,-0.0144,-0.0138,-0.0132,0,0,0,0,0,0,0.0056,0.0044,0.0031,0.004,0.0029,0.0006,0.0007,-0.001,-0.0031,-0.0036,-0.0078,-0.0088,-0.0103,-0.013,-0.0129,-0.0155,-0.0179,-0.018,-0.0128,-0.0123,-0.0118,-0.0107,-0.0166,0,0,0,0,0,0.0064,0.007,0.0053,0.006,0.0057,0.0032,0.0026,0.0012,-0.0008,-0.0018,-0.0048,-0.0081,-0.0106,-0.0121,-0.0147,-0.0157,-0.0192,-0.0161,-0.0157,-0.0152,-0.0149,-0.0197,-0.0196,-0.0205,-0.0205,-0.0205,0,0,0.0074,0.0068,0.0071,0.0065,0.0053,0.0061,0.0027,0.0027,0.003,-0.0023,-0.0029,-0.0064,-0.0106,-0.0118,-0.0128,-0.014,-0.0166,-0.0152,-0.0147,-0.0147,-0.0196,-0.0195,-0.0195,-0.0205,-0.0205,-0.0205,0,0,0.0105,0.0094,0.011,0.0108,0.0099,0.0085,0.0088,0.0068,0.0055,0.0048,0.0007,-0.0022,-0.0056,-0.0087,-0.0107,-0.0092,-0.0139,-0.0101,-0.0068,-0.0114,-0.0113,-0.0113,-0.0147,-0.0151,-0.0099,-0.0099,-0.0099,0,0.0116,0.0135,0.0115,0.0132,0.0136,0.01,0.0121,0.0106,0.0082,0.0073,0.0056,-0.0005,-0.0041,-0.0065,-0.0062,-0.0081,-0.0111,-0.0083,-0.0107,-0.0108,-0.0109,-0.0144,-0.0149,-0.0096,-0.0096,-0.0096,-0.0097,0,0.016,0.0175,0.0186,0.0195,0.0196,0.0209,0.0189,0.0183,0.0161,0.0139,0.0112,0.006,0.0023,0.0005,-0.0024,-0.005,-0.0069,-0.0094,-0.0118,-0.0104,-0.0142,-0.0148,-0.0091,-0.0092,-0.0093,-0.0094,0,0,0.0187,0.0213,0.0216,0.0234,0.0231,0.024,0.0244,0.0237,0.0239,0.0201,0.0195,0.014,0.0103,0.0077,0.0031,-0.0012,-0.0047,-0.0051,-0.0055,-0.0078,-0.0141,-0.0141,-0.0149,-0.0077,-0.0078,-0.0078,-0.016,0,0.0225,0.0275,0.0275,0.0318,0.0341,0.0318,0.0328,0.0314,0.029,0.0274,0.0209,0.0187,0.0133,0.0117,0.0065,-0.0018,-0.0062,-0.0022,-0.0157,-0.0161,-0.0159,-0.0156,-0.0081,-0.0165,-0.0166,-0.0167,-0.0168,0,0.0266,0.0295,0.0348,0.0382,0.039,0.0408,0.0413,0.0417,0.0381,0.0362,0.0318,0.0269,0.0205,0.0157,0.0022,0.0051,-0.0037,-0.0106,-0.0112,-0.0141,-0.0173,-0.0187,-0.018,-0.0179,-0.0179,-0.0178,-0.0177,0,0.0294,0.0345,0.039,0.0403,0.0433,0.045,0.0458,0.0441,0.0454,0.0414,0.0418,0.0327,0.0291,0.0169,0.0031,0.0024,-0.0121,-0.015,-0.0234,-0.0235,-0.024,-0.024,-0.0249,-0.0249,-0.0249,-0.0249,-0.0249,0,0.0331,0.0368,0.041,0.0436,0.049,0.0491,0.0534,0.0524,0.0522,0.0541,0.0465,0.0454,0.0291,0.0193,0.0053,-0.0103,-0.0106,-0.0227,-0.0258,-0.0208,-0.0203,-0.0244,-0.0243,-0.0252,-0.0251,-0.0251,-0.025,0,0.0349,0.0378,0.0436,0.0485,0.0506,0.054,0.0596,0.0622,0.0614,0.0634,0.0631,0.0549,0.0417,0.0253,0.0054,-0.006,-0.0218,-0.0275,-0.0195,-0.022,-0.0308,-0.0302,-0.0376,-0.0376,-0.0377,-0.0378,-0.0378,0,0.0359,0.0391,0.0471,0.0511,0.0537,0.0594,0.0635,0.066,0.0693,0.0689,0.0701,0.06,0.052,0.0256,0.0066,-0.019,-0.0234,-0.0312,-0.0327,-0.0299,-0.0322,-0.0315,-0.0308,-0.0379,-0.0379,-0.0379,-0.038,0,0.0367,0.0398,0.0443,0.0529,0.059,0.0669,0.073,0.0766,0.0789,0.0799,0.0763,0.0628,0.048,0.0263,0.0071,-0.0119,-0.0259,-0.0319,-0.032,-0.0335,-0.0304,-0.0324,-0.0317,-0.0382,-0.0381,-0.0381,-0.0381,0,0.0356,0.039,0.0449,0.0527,0.0614,0.0699,0.0745,0.0788,0.0824,0.0827,0.0811,0.0651,0.0565,0.0299,0.0117,-0.0062,-0.0121,-0.0187,-0.0196,-0.0196,-0.0126,-0.0059,-0.0086,0,0,0,0,0,0.0332,0.0366,0.0439,0.0527,0.0623,0.0682,0.0782,0.0824,0.0863,0.0849,0.0835,0.0697,0.0434,0.0324,0.0144,0.0078,-0.0168,-0.0142,-0.0253,-0.0394,-0.0391,-0.0341,0,0,0,0,0,0,0.0306,0.0364,0.0418,0.0511,0.0579,0.0687,0.0759,0.0801,0.0801,0.0815,0.0686,0.0637,0.0387,0.0532,0.0133,0.008,-0.0018,-0.0256,-0.0261,-0.0395,-0.0393,-0.0391,-0.0338,0,0,0,0,0]}]]